Waarnemingen

Advertentie
Mijn weer
Abbeville, Frankrijk (7005): temperatuur & dauwpunt: 27.05.2020 10:00:00 - 02.06.2020 10:00:00 (CEST)Abbeville, Frankrijk (7005): temperatuur 5cm: 27.05.2020 10:00:00 - 02.06.2020 10:00:00 (CEST)Abbeville, Frankrijk (7005): temperatuur -20cm & temperatuur -100cm: 27.05.2020 10:00:00 - 02.06.2020 10:00:00 (CEST)Abbeville, Frankrijk (7005): windsnelheid & windstoten: 27.05.2020 10:00:00 - 02.06.2020 10:00:00 (CEST)Abbeville, Frankrijk (7005): windrichting: 27.05.2020 10:00:00 - 02.06.2020 10:00:00 (CEST)Abbeville, Frankrijk (7005): luchtdruk: 27.05.2020 10:00:00 - 02.06.2020 10:00:00 (CEST)Abbeville, Frankrijk (7005): zicht: 27.05.2020 10:00:00 - 02.06.2020 10:00:00 (CEST)Abbeville, Frankrijk (7005): Zonneschijnduur: 27.05.2020 10:00:00 - 02.06.2020 10:00:00 (CEST)Abbeville, Frankrijk (7005): neerslag: 27.05.2020 10:00:00 - 02.06.2020 10:00:00 (CEST)
Datum & Tijd tt [°C] td [°C] tt 5cm [°C] tt -20cm [°C] tt -100cm [°C] ff [km/u] ff [kn] fx [km/u] fx [kn] dd ppp [hPa] vv [km] sd [min] rr [mm]
02.06.2020 10:00:00 21,2 12,9 22,0 17,2 14,0 7 4 14 8 NNO 1018,7 20 60 0,0
02.06.2020 09:00:00 17,1 12,0 16,7 17,4 14,0 6 3 10 5 NO 1018,9 18 15 0,0
02.06.2020 08:00:00 14,6 11,9 14,6 17,6 14,0 2 1 6 3 N 1019,1 19 15 0,0
02.06.2020 07:00:00 13,1 10,1 8,5 17,9 14,0 0 0 8 4 N 1019,2 20 42 0,0
02.06.2020 06:00:00 12,0 9,0 7,9 18,1 14,0 4 2 9 5 NO 1019,0 20 0 0,0
02.06.2020 05:00:00 12,6 8,7 8,3 18,3 14,0 4 2 6 4 NNO 1019,2 20 0 0,0
02.06.2020 04:00:00 13,6 9,0 9,7 18,6 13,9 0 0 19 11 N 1019,2 20 0 0,0
02.06.2020 03:00:00 15,0 9,4 13,4 18,8 14,0 13 7 18 10 ONO 1019,2 20 0 0,0
02.06.2020 02:00:00 14,5 9,3 13,1 19,1 14,0 8 4 14 7 NO 1019,7 20 0 0,0
02.06.2020 01:00:00 15,5 9,2 14,2 19,3 14,0 9 5 23 13 NO 1020,0 20 0 0,0
02.06.2020 00:00:00 16,8 9,9 15,7 19,6 14,0 13 7 25 13 NNO 1019,9 20 0 0,0
01.06.2020 23:00:00 18,1 10,7 17,2 19,7 13,9 15 8 26 14 NNO 1019,3 20 0 0,0
01.06.2020 22:00:00 19,5 11,8 18,5 19,9 13,9 14 8 26 14 NNO 1018,9 20 5 0,0
01.06.2020 21:00:00 21,7 11,7 22,4 19,9 13,9 17 9 29 16 NNO 1018,5 20 57 0,0
01.06.2020 20:00:00 23,7 12,0 26,3 19,8 13,9 22 12 32 17 NNO 1018,1 20 60 0,0
01.06.2020 19:00:00 25,4 10,0 29,1 19,6 13,9 18 10 29 16 ONO 1018,3 20 60 0,0
01.06.2020 18:00:00 25,7 10,3 29,6 19,3 13,9 14 8 30 16 NO 1018,5 20 60 0,0
01.06.2020 17:00:00 25,3 9,6 28,3 19,0 13,9 13 7 30 16 O 1018,9 20 55 0,0
01.06.2020 16:00:00 25,2 8,6 29,1 18,5 13,9 16 9 32 17 ONO 1019,3 20 57 0,0
01.06.2020 15:00:00 25,1 8,1 30,0 18,0 13,9 16 9 35 19 NO 1019,7 20 60 0,0
01.06.2020 14:00:00 24,1 7,3 28,9 17,5 13,9 18 10 40 22 O 1020,0 20 60 0,0
01.06.2020 13:00:00 22,9 7,0 27,4 17,2 13,9 22 12 35 19 ONO 1020,3 20 60 0,0
01.06.2020 12:00:00 22,3 7,3 26,9 16,8 13,9 18 10 32 17 O 1020,7 9 58 0,0
01.06.2020 11:00:00 21,0 8,6 25,1 16,7 13,9 10 6 23 12 ONO 1020,8 20 60 0,0
01.06.2020 10:00:00 19,0 8,6 20,4 16,6 13,9 11 6 20 11 ONO 1020,9 20 60 0,0
01.06.2020 09:00:00 16,6 8,5 18,2 16,8 13,9 13 7 20 11 ONO 1020,9 20 60 0,0
01.06.2020 08:00:00 14,5 8,4 13,3 16,9 13,8 8 4 14 7 ONO 1020,7 20 41 0,0
01.06.2020 07:00:00 11,9 7,2 9,7 17,1 13,8 10 5 16 9 ONO 1020,6 20 23 0,0
01.06.2020 06:00:00 11,0 6,7 8,7 17,4 13,8 12 6 15 8 ONO 1020,7 20 0 0,0
01.06.2020 05:00:00 11,4 6,7 9,6 17,7 13,8 10 5 19 10 O 1020,5 20 0 0,0
01.06.2020 04:00:00 12,0 7,7 9,9 17,9 13,8 11 6 15 8 ONO 1020,6 20 0 0,0
01.06.2020 03:00:00 12,5 8,2 10,2 18,2 13,8 11 6 17 9 ONO 1020,8 20 0 0,0
01.06.2020 02:00:00 12,5 8,8 10,8 18,4 13,8 10 5 19 10 ONO 1020,8 20 0 0,0
01.06.2020 01:00:00 13,5 9,2 12,3 18,7 13,8 11 6 22 12 NO 1020,7 20 0 0,0
01.06.2020 00:00:00 14,4 9,2 13,2 18,9 13,8 13 7 21 11 NNO 1020,6 20 0 0,0
31.05.2020 23:00:00 15,4 8,2 13,9 19,1 13,8 11 6 22 12 NNO 1020,5 20 0 0,0
31.05.2020 22:00:00 17,6 6,1 16,0 19,3 13,8 11 6 21 11 ONO 1019,9 20 24 0,0
31.05.2020 21:00:00 20,5 6,4 20,9 19,4 13,8 11 6 26 14 ONO 1019,6 20 60 0,0
31.05.2020 20:00:00 21,8 5,6 24,2 19,3 13,8 17 9 34 18 ONO 1019,2 20 60 0,0
31.05.2020 19:00:00 22,4 5,3 24,4 19,2 13,8 18 10 29 15 O 1018,9 20 58 0,0
31.05.2020 18:00:00 22,7 4,7 25,1 19,0 13,8 19 11 38 20 ONO 1019,4 20 57 0,0
31.05.2020 17:00:00 22,7 6,0 23,4 18,7 13,7 19 11 35 19 ONO 1019,4 20 48 0,0
31.05.2020 16:00:00 22,8 6,1 24,8 18,3 13,7 14 8 34 18 ONO 1019,8 20 47 0,0
31.05.2020 15:00:00 22,6 6,8 24,7 17,8 13,8 16 9 33 18 NO 1020,1 20 49 0,0
31.05.2020 14:00:00 22,3 6,5 23,9 17,4 13,7 22 12 41 22 NO 1020,4 20 51 0,0
31.05.2020 13:00:00 22,3 5,7 26,3 17,0 13,7 19 10 37 20 ONO 1020,9 20 60 0,0
31.05.2020 12:00:00 21,5 5,4 25,6 16,8 13,7 18 10 33 18 O 1021,1 18 60 0,0
31.05.2020 11:00:00 20,6 6,2 23,8 16,6 13,7 13 7 24 13 O 1021,2 18 60 0,0
31.05.2020 10:00:00 19,5 6,9 21,5 16,6 13,7 13 7 22 12 OZO 1021,4 20 60 0,0
31.05.2020 09:00:00 17,7 7,7 17,9 16,7 13,7 9 5 16 9 O 1021,4 20 60 0,0
31.05.2020 08:00:00 14,9 7,2 13,9 16,9 13,7 10 6 19 11 O 1021,1 20 40 0,0
31.05.2020 07:00:00 12,9 6,7 10,3 17,2 13,7 11 6 19 11 O 1021,0 20 24 0,0
31.05.2020 06:00:00 11,7 6,0 9,7 17,4 13,7 12 6 18 10 O 1020,5 20 0 0,0
31.05.2020 05:00:00 11,9 6,0 9,9 17,7 13,7 11 6 16 9 ONO 1020,3 20 0 0,0
31.05.2020 04:00:00 12,3 6,3 9,9 18,0 13,7 10 5 15 8 ONO 1020,3 20 0 0,0
31.05.2020 03:00:00 12,5 7,2 10,9 18,2 13,7 10 6 15 8 NO 1020,1 20 0 0,0
31.05.2020 02:00:00 13,1 7,7 11,4 18,5 13,7 11 6 16 9 NO 1020,3 20 0 0,0
31.05.2020 01:00:00 13,5 8,1 11,6 18,8 13,7 11 6 15 8 NO 1020,4 20 0 0,0
31.05.2020 00:00:00 14,4 8,3 12,5 19,1 13,6 9 5 17 9 NO 1020,2 20 0 0,0
30.05.2020 23:00:00 16,5 8,5 13,1 19,3 13,7 13 7 21 11 NNO 1019,9 20 0 0,0
30.05.2020 22:00:00 17,8 6,9 13,2 19,5 13,7 7 4 13 7 NNO 1019,3 20 0 0,0
30.05.2020 21:00:00 20,8 6,7 21,5 19,6 13,7 9 5 19 10 ONO 1019,0 20 52 0,0
30.05.2020 20:00:00 22,9 5,3 25,3 19,6 13,7 14 7 25 13 ONO 1019,1 20 60 0,0
30.05.2020 19:00:00 23,5 5,8 27,2 19,3 13,6 17 9 28 15 ONO 1019,2 20 60 0,0
30.05.2020 18:00:00 24,1 6,8 29,2 19,1 13,6 13 7 29 16 NO 1019,6 20 60 0,0
30.05.2020 17:00:00 24,3 6,1 29,3 18,7 13,6 15 8 32 17 ONO 1019,9 20 60 0,0
30.05.2020 16:00:00 24,3 7,9 30,0 18,1 13,6 12 7 27 14 NO 1020,4 20 60 0,0
30.05.2020 15:00:00 24,0 5,8 28,5 17,6 13,6 11 6 26 14 ONO 1020,7 20 57 0,0
30.05.2020 14:00:00 23,7 7,7 30,1 17,0 13,6 8 5 22 12 ONO 1021,0 20 60 0,0
30.05.2020 13:00:00 23,2 7,7 29,0 16,6 13,6 6 3 23 12 O 1021,5 17 60 0,0
30.05.2020 12:00:00 22,5 5,8 27,6 16,2 13,6 9 5 22 12 OZO 1021,9 5 60 0,0
30.05.2020 11:00:00 21,0 7,9 24,8 16,0 13,6 9 5 16 9 O 1022,2 6 60 0,0
30.05.2020 10:00:00 19,0 8,6 20,8 16,0 13,6 9 5 16 9 O 1022,3 19 60 0,0
30.05.2020 09:00:00 16,5 8,5 17,3 16,1 13,6 11 6 17 9 O 1022,4 20 60 0,0
30.05.2020 08:00:00 13,8 8,8 12,7 16,2 13,6 8 4 12 6 O 1022,5 19 38 0,0
30.05.2020 07:00:00 10,9 8,5 7,6 16,4 13,6 10 5 15 8 ONO 1022,5 16 25 0,0
30.05.2020 06:00:00 9,4 7,7 7,6 16,7 13,6 8 4 15 8 ONO 1022,5 16 0 0,0
30.05.2020 05:00:00 9,9 7,8 7,9 17,0 13,6 11 6 13 7 ONO 1022,5 18 0 0,0
30.05.2020 04:00:00 10,5 7,9 9,0 17,2 13,5 8 4 15 8 O 1022,8 20 0 0,0
30.05.2020 03:00:00 11,1 7,8 9,8 17,5 13,6 12 6 17 9 ONO 1023,0 20 0 0,0
30.05.2020 02:00:00 11,5 7,2 9,9 17,8 13,5 11 6 19 10 ONO 1023,3 20 0 0,0
30.05.2020 01:00:00 12,2 6,7 10,9 18,1 13,6 13 7 21 11 NO 1023,4 20 0 0,0
30.05.2020 00:00:00 13,4 6,3 12,2 18,3 13,5 14 8 26 14 NO 1023,4 20 0 0,0
29.05.2020 23:00:00 14,6 6,4 13,5 18,5 13,5 16 8 26 14 NO 1023,3 20 0 0,0
29.05.2020 22:00:00 16,2 6,9 14,9 18,7 13,5 14 8 30 16 NNO 1023,1 20 0 0,0
29.05.2020 21:00:00 18,6 7,4 19,1 18,8 13,5 16 9 33 18 NNO 1022,7 20 53 0,0
29.05.2020 20:00:00 21,0 7,9 23,8 18,8 13,5 19 11 33 18 NO 1022,7 20 60 0,0
29.05.2020 19:00:00 22,6 4,1 26,1 18,6 13,5 15 8 29 15 ONO 1022,9 20 60 0,0
29.05.2020 18:00:00 23,0 3,5 27,4 18,3 13,5 18 10 29 15 ONO 1023,3 20 60 0,0
29.05.2020 17:00:00 23,1 5,0 28,1 18,0 13,5 18 10 33 18 O 1023,8 20 60 0,0
29.05.2020 16:00:00 22,9 3,9 27,8 17,5 13,5 18 10 35 19 O 1024,4 20 60 0,0
29.05.2020 15:00:00 22,7 4,2 28,2 17,0 13,5 17 9 31 17 ONO 1025,0 20 60 0,0
29.05.2020 14:00:00 22,3 5,2 27,3 16,6 13,5 18 10 33 18 ONO 1025,8 20 60 0,0
29.05.2020 13:00:00 21,3 4,8 26,1 16,2 13,5 16 9 29 16 O 1026,5 20 60 0,0
29.05.2020 12:00:00 20,8 4,8 24,1 15,9 13,5 16 9 26 14 O 1027,0 20 60 0,0
29.05.2020 11:00:00 19,4 5,4 22,2 15,7 13,5 14 8 25 13 O 1027,4 20 60 0,0
29.05.2020 10:00:00 17,6 6,8 19,8 15,7 13,4 14 8 21 11 O 1027,6 20 60 0,0
29.05.2020 09:00:00 15,5 6,8 15,7 15,8 13,4 12 6 27 15 ONO 1027,9 20 60 0,0
29.05.2020 08:00:00 13,2 5,8 12,7 16,0 13,4 18 10 26 14 ONO 1027,6 20 34 0,0
29.05.2020 07:00:00 11,4 5,9 9,2 16,2 13,4 16 8 22 12 ONO 1027,9 20 23 0,0
29.05.2020 06:00:00 10,3 6,3 8,6 16,5 13,4 16 8 21 11 ONO 1028,0 20 0 0,0
29.05.2020 05:00:00 9,9 7,3 8,5 16,7 13,4 13 7 18 10 ONO 1028,3 20 0 0,0
29.05.2020 04:00:00 10,5 7,9 9,0 17,0 13,4 12 6 19 10 ONO 1028,5 20 0 0,0
29.05.2020 03:00:00 10,5 8,3 9,0 17,2 13,4 11 6 18 10 ONO 1028,7 20 0 0,0
29.05.2020 02:00:00 10,9 8,5 8,5 17,5 13,4 10 6 16 8 ONO 1028,9 20 0 0,0
29.05.2020 01:00:00 11,8 8,3 9,7 17,8 13,4 8 4 20 11 ONO 1029,1 20 0 0,0
29.05.2020 00:00:00 13,3 8,6 12,2 18,0 13,4 14 8 29 16 NO 1029,2 20 0 0,0
28.05.2020 23:00:00 14,3 8,7 13,1 18,3 13,4 16 9 29 16 NO 1029,1 20 0 0,0
28.05.2020 22:00:00 15,8 9,0 14,8 18,4 13,4 18 10 34 19 NO 1029,0 20 0 0,0
28.05.2020 21:00:00 18,0 8,8 18,4 18,5 13,4 19 10 31 17 NNO 1028,8 20 51 0,0
28.05.2020 20:00:00 20,8 4,4 22,8 18,5 13,4 19 10 34 18 ONO 1028,6 20 60 0,0
28.05.2020 19:00:00 21,4 4,0 24,7 18,4 13,4 21 12 42 23 ONO 1028,9 20 60 0,0
28.05.2020 18:00:00 21,9 5,3 26,5 18,2 13,3 18 10 37 20 NO 1029,2 20 60 0,0
28.05.2020 17:00:00 22,0 4,5 26,9 17,9 13,4 21 12 39 21 ONO 1029,7 20 60 0,0
28.05.2020 16:00:00 21,7 4,3 26,5 17,5 13,3 24 13 40 22 ONO 1030,3 20 60 0,0
28.05.2020 15:00:00 21,4 4,9 26,1 17,1 13,3 25 14 41 22 ONO 1030,8 20 60 0,0
28.05.2020 14:00:00 20,8 4,8 25,3 16,7 13,3 20 11 35 19 O 1031,5 20 60 0,0
28.05.2020 13:00:00 19,6 5,6 24,0 16,4 13,3 19 10 44 24 ONO 1032,1 20 60 0,0
28.05.2020 12:00:00 18,0 7,4 22,6 16,2 13,3 19 11 32 17 ONO 1032,7 20 60 0,0
28.05.2020 11:00:00 16,8 8,5 21,1 16,1 13,3 18 10 28 15 NO 1033,2 19 60 0,0
28.05.2020 10:00:00 15,8 9,0 19,2 16,1 13,3 14 7 24 13 ONO 1033,4 20 60 0,0
28.05.2020 09:00:00 14,3 8,9 15,7 16,1 13,3 15 8 29 15 ONO 1033,8 20 60 0,0
28.05.2020 08:00:00 12,9 9,9 12,9 16,3 13,3 15 8 27 14 NO 1033,7 18 33 0,0
28.05.2020 07:00:00 11,9 10,3 11,1 16,5 13,3 10 6 20 11 NO 1033,8 9 14 0,0
28.05.2020 06:00:00 11,3 10,2 9,4 16,7 13,3 11 6 19 11 NO 1033,7 8 0 0,0
28.05.2020 05:00:00 9,9 9,0 8,3 16,9 13,3 8 4 18 10 NO 1034,0 12 0 0,0
28.05.2020 04:00:00 10,4 9,2 9,5 17,2 13,2 14 7 22 12 NO 1034,0 14 0 0,0
28.05.2020 03:00:00 10,9 8,8 9,9 17,4 13,3 9 5 21 12 NO 1034,2 20 0 0,0
28.05.2020 02:00:00 12,2 8,1 10,8 17,7 13,2 14 7 23 12 NNO 1034,2 20 0 0,0
28.05.2020 01:00:00 12,6 8,1 11,2 18,0 13,3 9 5 16 9 NO 1034,4 20 0 0,0
28.05.2020 00:00:00 13,4 8,0 11,9 18,2 13,3 9 5 19 10 NO 1034,5 20 0 0,0
27.05.2020 23:00:00 13,9 8,3 12,2 18,5 13,3 9 5 17 9 NNO 1034,7 20 0 0,0
27.05.2020 22:00:00 15,9 8,6 14,3 18,7 13,3 11 6 25 14 NNO 1034,1 20 6 0,0
27.05.2020 21:00:00 18,2 8,2 17,8 18,8 13,2 16 9 32 17 NO 1033,7 20 35 0,0
27.05.2020 20:00:00 20,1 9,3 22,8 18,8 13,2 20 11 34 18 NNO 1033,6 20 60 0,0
27.05.2020 19:00:00 21,2 9,4 24,9 18,7 13,2 21 11 34 18 NO 1033,2 20 60 0,0
27.05.2020 18:00:00 21,9 9,8 27,0 18,4 13,2 23 12 36 20 NNO 1033,4 20 60 0,0
27.05.2020 17:00:00 22,7 11,1 28,2 18,1 13,2 22 12 39 21 NNO 1033,5 20 60 0,0
27.05.2020 16:00:00 23,1 11,2 25,7 17,7 13,2 19 10 34 18 NO 1033,6 20 48 0,0
27.05.2020 15:00:00 23,5 10,9 27,1 17,2 13,2 17 9 30 16 NO 1033,7 20 57 0,0
27.05.2020 14:00:00 23,0 11,1 29,4 16,7 13,2 17 9 32 17 NNO 1034,0 20 60 0,0
27.05.2020 13:00:00 22,0 9,2 29,4 16,3 13,2 15 8 26 14 NNO 1034,5 20 60 0,0
27.05.2020 12:00:00 21,4 10,2 26,4 16,0 13,2 13 7 20 11 N 1034,8 20 60 0,0
27.05.2020 11:00:00 20,0 9,5 25,6 15,8 13,2 12 6 19 10 NO 1035,0 20 60 0,0
27.05.2020 10:00:00 19,1 9,8 21,7 15,7 13,2 12 7 17 9 NO 1035,1 20 60 0,0

tt = temperatuur
td = dauwpunt
tt 5cm = temperatuur 5cm
tt -20cm = temperatuur -20cm
tt -100cm = temperatuur -100cm
ff = windsnelheid
fx = windstoten
dd = windrichting
ppp = luchtdruk
vv = zicht
sd = Zonneschijnduur
rr = neerslag

Weerstations in de omgeving